Regional Weather Roundup
Issued by NWS

Home | Current Version | Previous Version | Text Only | Print | Product List | Glossary On
Versions: 1 2 3 4 5 6 7 8 9 10 11 12 13 14 15 16 17 18 19 20 21 22 23 24 25 26 27 28 29 30 31 32 33 34 35 36 37 38 39 40 41 42 43 44 45 46 47 48 49 50
000
ASUS43 KBIS 271501
RWRND

NORTH DAKOTA REGIONAL WEATHER ROUNDUP
NATIONAL WEATHER SERVICE BISMARCK ND
900 AM CST TUE JAN 27 2015

NOTE: "FAIR" INDICATES FEW OR NO CLOUDS BELOW 12,000 FEET WITH NO
SIGNIFICANT WEATHER AND/OR OBSTRUCTIONS TO VISIBILITY.


NDZ001>003-009>011-017-271600-
NORTHWEST NORTH DAKOTA

CITY           SKY/WX    TMP DP  RH WIND       PRES   REMARKS
WILLISTON      MOCLDY    28  26  92 S3        29.84R
MINOT          PTCLDY    29  25  85 SE3       29.84S
MINOT AFB      PTCLDY    26  26 100 SE7       29.84S WCI  18
$$

NDZ018>021-031>035-040>046-271600-
SOUTHWEST NORTH DAKOTA

CITY           SKY/WX    TMP DP  RH WIND       PRES   REMARKS
BISMARCK       CLEAR     30  28  92 SE7       29.91S
DICKINSON      CLEAR     38  30  73 W8        29.84R
GARRISON         N/A     31  29  92 S6        29.85S
HETTINGER ARPT PTCLDY    35  28  75 CALM      29.89S
$$

NDZ004>008-012>016-024-026-027-054-271600-
NORTHEAST NORTH DAKOTA

CITY           SKY/WX    TMP DP  RH WIND       PRES   REMARKS
GRAND FORKS    FOG       27  26  96 S7        30.05R VSB 3/4 WCI  19
DEVILS LAKE    CLEAR     27  25  93 SE10      29.95R WCI  17
$$

NDZ022-023-025-028>030-036>039-047>053-271600-
SOUTHEAST NORTH DAKOTA

CITY           SKY/WX    TMP DP  RH WIND       PRES   REMARKS
FARGO          FOG       28  26  92 S10       30.06S VSB 3/4 WCI  19
JAMESTOWN      PTCLDY    29  27  92 S9        29.97F
$$




USA.gov is the U.S. government's official web portal to all federal, state and local government web resources and services.